Location: Usti nad Orlici
(49.9830°N, 16.4000°E)
Time: 00:17:25
(UTC+02:00)

ISS - Pass Details

Date: 29 March 2019
Orbit: 408 x 410 km, 51.6° (Epoch: 23 April)

Event Time Altitude Azimuth Distance (km) Brightness Sun altitude
Rises 21:41:20 0° 287° (WNW) 2,338 0.9 -28.8°
Reaches altitude 10° 21:43:27 10° 284° (WNW) 1,475 -0.4 -29.0°
Enters shadow 21:43:41 12° 284° (WNW) 1,380 -0.5 -29.1°
